Home   Weather   Chilliwack   Past weeks
Flag for Canada

Past Weather in Chilliwack, British Columbia, Canada — Yesterday and Last 2 Weeks

Now
62 °F

Cool.


Feels Like: 62 °F
Forecast: 64 / 58 °F
Wind: 2 mph from Southwest

Location: Agassiz

Current Time: Jul 17, 2019 at 6:09:42 am

Latest Report: Jul 17, 2019 at 5:00 am


Visibility: N/A

Pressure: 29.84 "Hg

Humidity: 85%

Dew Point: 57 °F

Location of ChilliwackLocation

Past Weather in Chilliwack — Graph

°F

Chilliwack Temperature Yesterday

Maximum temperature yesterday: 77 °F (at 5:00 pm)
Minimum temperature yesterday: 55 °F (at 5:00 am)
Average temperature yesterday: 66 °F

High & Low Weather Summary for the Past Weeks

 TemperatureHumidityPressure
High80 °F (Jul 9, 4:00 pm)100% (Jul 5, 11:00 pm)30.14 "Hg (Jul 5, 11:00 pm)
Low54 °F (Jul 9, 3:00 am)46% (Jul 14, 5:00 pm)29.83 "Hg (Jul 17, 4:00 am)
Average64 °F79%30.02 "Hg
* Reported Jul 2 4:00 am — Jul 17 4:00 am, Chilliwack. Weather by CustomWeather, © 2019

Note: Actual official high and low records may vary slightly from our data, if they occured in-between our weather recording intervals... More about our weather records

Advertising

Chilliwack Weather History for the Previous 24 Hours

Scroll right to see more
 ConditionsComfort  
Time TempWeatherWind HumidityBarometerVisibility
4:00 am
Wed, Jul 17
63 °FMild.1 mph78%29.83 "HgN/A
3:00 am63 °FMild.1 mph82%29.85 "HgN/A
2:00 am63 °FMild.1 mph84%29.85 "HgN/A
1:00 am64 °FMild.2 mph80%29.86 "HgN/A
12:00 am65 °FMild.1 mph73%29.88 "HgN/A
11:00 pm
Tue, Jul 16
66 °FMild.2 mph75%29.88 "HgN/A
10:00 pm67 °FMild.1 mph70%29.89 "HgN/A
9:00 pm70 °FMild.1 mph61%29.89 "HgN/A
8:00 pm73 °FMild.5 mph55%29.90 "HgN/A
7:00 pm74 °FMild.5 mph53%29.92 "HgN/A
6:00 pm76 °FMild.6 mph51%29.90 "HgN/A
5:00 pm77 °FWarm.7 mph50%29.92 "HgN/A
4:00 pm77 °FMild.7 mph52%29.93 "HgN/A
3:00 pm76 °FMild.5 mph51%29.94 "HgN/A
2:00 pm72 °FMild.6 mph55%29.97 "HgN/A
1:00 pm74 °FMild.5 mph53%29.98 "HgN/A
12:00 pm70 °FMild.3 mph62%30.00 "HgN/A
11:00 am68 °FMild.2 mph69%30.01 "HgN/A
10:00 am67 °FMild.1 mph77%30.00 "HgN/A
9:00 am63 °FMild.1 mph83%30.01 "HgN/A
8:00 am61 °FCool.2 mph85%30.02 "HgN/A
7:00 am59 °FCool.1 mph96%30.01 "HgN/A
6:00 am56 °FCool.No wind98%30.01 "HgN/A
Weather by CustomWeather, © 2019

See weather overview